Location: Chmeln�
(49.6483°N, 14.9871°E)
Time: 03:13:07
(UTC+00:00)

ATLAS 2AS CENTAUR R/B - Pass Details

Date: 18 September 2020
Orbit: 939 x 1273 km, 63.7° (Epoch: 19 October)

Event Time Altitude Azimuth Distance (km) Brightness Sun altitude
Exits shadow 22:59:05 11° 276° (W) 3,226 5.2 -38.9°
Maximum altitude 23:06:06 35° 339° (NNW) 1,916 4.3 -38.9°
Drops below altitude 10° 23:13:02 10° 43° (NE) 3,161 5.6 -38.8°
Sets 23:16:03 0° 53° (NE) 4,081 6.2 -38.7°
